User: anonymous
Location: Unspecified
(0.0000°N, 0.0000°E)
Time: 08:41:56
(UTC+02:00)
Language:

Cosmos 2279 Rocket - Orbit

View from above orbital plane
View from above orbital plane
View from above satellite
View from above satellite

Ground track
Ground track

The orbit data is extracted from the following two-line orbital elements,

1 23093U 94024B   14106.83838153  .00000110  00000-0  94981-4 0  8342
2 23093 082.9466 255.1531 0009897 015.9962 344.1506 13.77612743472086
Epoch (UTC): 16 April 2014 20:07:16
Eccentricity: 0.0009897
inclination: 82.9466°
perigee height: 965 km
apogee height: 979 km
right ascension of ascending node: 255.1531°
argument of perigee: 15.9962°
revolutions per day: 13.77612743
mean anomaly at epoch: 344.1506°
orbit number at epoch: 47208

The dashed part of the orbit path shows where the satellite is in the earth's shadow,  

DLR